Dewpoint
73 72 73 72 73 73 71 68 57 61 59 53 53 55 53 59 62 60 58 59 58 60 61 61 61 61 62 60 59 62 63 58 60 51 49 64 70 69 71 71 72 73 73 74 74 74 74 75 74 74 75 76 76 76 77 77 77 78 77 77 77 77 77 77 77 77 77 77 77 77 77 77 76 76 76 76 76 76 75 76 76 76 75 75 75 75 75 75 75 75 75 75 74 74 74 74 74
72 73 73 74 73 72 65 68 58 52 54 52 52 57 56 58 58 57 57 59 58 59 62 62 62 62 63 63 63 62 61 64 65 65 67 69 70 71 71 71 72 72 73 73 73 73 73 74 75 74 75 76 76 77 77 77 77 77 77 77 77 77 77 77 77 78 78 77 77 77 77 77 76 76 76 76 76 75 75 75 75 76 75 75 75 75 75 75 75 75 74 74 74 74 74 74 74
72 73 73 74 72 70 68 66 55 49 47 45 49 55 57 56 56 56 58 58 59 61 62 61 62 62 61 62 60 61 58 66 65 66 67 70 68 70 71 72 72 73 73 73 73 74 74 75 75 76 75 76 76 77 77 77 77 77 78 78 77 78 77 77 77 78 78 77 77 77 77 76 76 76 76 76 75 75 75 75 75 75 75 75 75 75 75 74 74 74 75 75 75 74 75 75 74
73 73 72 71 66 69 63 61 55 51 47 48 49 53 56 56 55 57 58 59 60 61 61 60 59 61 61 61 62 64 63 63 65 66 66 68 68 71 71 72 73 73 73 73 73 74 75 76 76 76 76 76 76 77 77 77 77 77 78 78 78 77 77 77 77 77 77 77 77 77 76 76 76 76 76 75 75 75 75 75 75 74 75 75 75 74 74 75 75 74 75 75 75 75 75 74 75
73 73 72 71 67 62 61 58 57 52 48 50 47 51 56 56 56 57 59 59 60 60 60 60 60 62 62 62 63 61 63 65 66 67 68 70 71 71 72 73 73 72 72 73 74 74 75 77 76 76 76 76 77 77 77 77 77 77 78 78 77 77 77 78 78 77 77 77 77 77 76 76 76 76 76 76 75 75 75 75 75 75 76 75 75 74 74 75 75 75 75 75 74 75 75 75 74
73 73 72 72 64 66 61 56 54 52 52 53 52 54 55 55 56 58 59 59 59 60 60 60 60 60 62 64 64 64 66 63 66 67 69 70 71 72 72 73 72 72 72 73 73 74 75 76 76 75 76 76 77 77 77 77 77 78 78 78 77 77 77 77 77 77 77 77 77 76 76 76 76 76 76 75 76 76 75 75 75 76 76 76 75 75 75 75 75 75 75 75 75 75 75 75 74
71 71 70 69 68 67 57 55 53 53 54 54 54 54 55 55 57 58 58 58 59 60 61 60 62 61 60 64 66 66 67 67 67 68 70 71 72 72 72 72 72 72 72 73 73 74 76 77 76 75 76 76 77 77 77 77 77 77 77 77 77 77 77 77 77 77 77 77 77 76 76 76 76 76 76 76 76 75 75 75 76 76 76 76 76 75 76 76 74 76 75 75 75 75 75 75 75
72 68 67 63 60 59 56 56 55 55 54 55 55 54 54 56 58 58 58 58 57 58 60 61 61 62 62 64 62 69 69 70 70 71 71 72 72 72 72 72 72 72 72 73 73 74 76 77 76 75 76 76 76 76 77 77 77 77 77 77 77 77 77 77 77 77 77 77 77 77 77 76 76 76 76 76 75 75 75 75 76 75 76 76 77 77 76 76 76 76 75 75 75 75 75 76 76
70 68 68 62 56 57 56 55 55 57 56 56 55 58 59 58 59 58 58 58 58 59 59 61 61 59 62 63 64 68 69 70 71 72 71 72 72 72 72 72 72 72 72 73 73 74 75 76 76 75 75 76 76 76 77 77 77 77 77 77 77 77 77 77 77 77 76 77 77 77 77 77 76 76 76 76 76 76 75 74 75 75 76 76 76 76 76 76 76 75 76 76 75 76 76 75 76
68 68 62 59 58 55 52 52 51 51 55 56 55 54 58 58 58 58 58 58 58 59 61 63 62 61 64 62 64 66 68 70 71 70 71 71 72 72 72 72 72 72 72 73 73 74 75 76 76 75 75 75 76 76 76 77 77 77 77 77 77 77 76 76 77 77 77 77 77 77 77 76 76 76 76 76 76 76 75 74 75 76 76 77 76 76 75 75 75 76 76 75 75 75 75 75 75
65 67 66 59 55 54 52 50 51 51 52 53 55 54 58 58 58 58 58 59 60 61 62 63 62 63 62 64 66 70 70 70 70 69 71 71 72 71 71 72 72 72 72 73 73 74 75 75 76 75 75 75 75 76 76 76 76 77 77 77 77 76 76 76 77 77 76 76 76 76 76 76 76 76 76 76 76 76 75 74 75 76 76 76 75 75 76 76 75 75 75 76 75 75 76 75 75
64 63 62 56 54 51 51 51 51 51 50 50 53 54 58 58 58 58 59 59 61 61 61 61 61 63 62 63 65 68 69 69 69 70 70 71 71 71 71 72 72 73 73 73 73 74 74 75 75 75 74 75 75 75 76 76 76 76 77 77 77 76 76 76 77 76 76 76 76 76 76 76 75 76 76 76 76 76 75 75 76 76 76 76 76 76 75 75 75 76 75 75 76 76 76 76 76
63 63 60 55 52 53 54 52 51 54 53 49 51 54 58 58 58 59 59 60 61 60 60 62 63 63 61 62 67 67 67 69 69 70 70 70 71 71 72 72 72 73 73 74 73 73 74 74 75 76 75 74 75 76 76 76 76 76 77 77 77 76 76 76 77 76 76 75 75 75 75 76 75 75 76 75 75 76 76 76 75 76 76 76 76 76 75 76 76 76 76 76 75 75 75 75 75
64 63 59 55 55 52 51 50 51 50 49 46 52 55 58 57 58 59 60 59 60 59 61 63 63 63 63 64 66 66 66 68 70 70 70 70 70 71 71 71 72 72 73 73 73 74 74 74 74 74 75 75 74 75 76 76 76 76 76 76 76 76 76 76 76 76 76 75 75 75 75 75 75 75 75 75 75 75 76 76 76 75 76 77 76 75 75 75 76 76 76 76 75 75 75 74 74
65 64 57 55 53 50 51 51 50 50 49 47 52 57 57 60 60 60 59 59 59 63 64 64 64 60 60 62 63 65 67 68 69 70 70 70 70 70 70 71 72 72 73 73 73 74 74 74 74 75 75 74 74 74 75 75 76 76 76 76 76 76 76 76 76 76 76 76 75 75 76 75 75 75 75 75 75 75 75 75 76 75 76 75 75 75 75 75 75 75 75 74 75 75 76 75 76
66 63 56 53 51 49 49 51 50 47 47 47 54 57 59 60 60 59 60 60 60 63 62 60 64 61 61 63 64 66 68 68 69 70 70 70 70 71 71 71 71 72 73 73 73 74 74 74 74 75 74 75 74 74 74 75 75 76 76 76 76 76 76 76 76 76 76 76 76 75 75 76 75 75 75 76 75 76 75 75 75 75 75 76 76 75 75 74 75 75 74 75 75 75 75 75 75
66 65 60 54 54 51 50 49 43 40 41 51 56 57 57 59 60 61 62 62 61 61 61 61 62 63 63 64 66 68 68 69 70 69 69 70 70 71 71 71 71 72 72 73 73 74 74 74 74 74 74 75 74 75 74 75 75 76 76 76 76 76 76 76 76 76 76 76 76 75 76 78 77 77 76 77 76 77 75 75 75 74 75 75 75 75 74 75 74 74 74 74 75 74 74 76 76
66 62 59 57 57 53 52 48 43 39 48 55 56 57 58 58 59 60 61 60 61 61 60 61 63 64 65 67 68 69 69 69 69 69 69 69 69 69 69 70 71 70 72 72 73 73 74 74 74 74 74 75 75 75 75 75 75 75 75 76 76 76 76 76 76 75 76 76 75 76 76 77 76 75 75 77 77 77 78 75 74 74 74 75 75 75 75 73 74 73 74 75 75 75 75 75 76
62 58 56 56 54 55 53 50 48 40 46 55 56 58 58 58 59 60 58 58 59 59 60 61 63 65 67 68 68 69 69 69 69 68 68 68 68 68 68 69 70 70 71 72 72 73 74 74 74 74 74 75 75 75 75 75 75 75 75 75 76 76 76 76 76 76 76 74 75 75 77 76 75 75 76 76 78 76 77 76 75 74 74 75 75 75 75 75 74 76 76 75 76 75 76 74 74
63 55 54 55 55 53 51 51 51 51 50 55 56 57 57 59 60 60 58 58 59 58 59 61 63 64 66 67 68 68 68 68 68 68 68 68 68 68 68 69 69 70 70 71 72 73 74 74 74 74 75 75 74 74 74 74 75 75 75 75 76 76 76 77 75 76 75 74 74 74 75 76 76 75 77 76 76 77 77 78 77 75 74 75 75 78 76 75 77 76 75 75 78 76 73 73 72
62 60 57 55 55 55 55 53 52 51 53 55 56 57 57 59 60 59 58 58 58 58 59 59 61 64 66 67 67 67 67 67 68 67 67 68 68 68 68 68 69 69 70 71 72 73 73 74 74 74 74 74 74 74 74 74 74 75 75 75 75 75 75 75 75 75 74 74 74 75 75 76 75 75 75 75 75 76 75 76 76 76 77 77 77 74 74 75 74 72 73 74 71 73 73 73 72
57 60 60 58 56 54 54 53 48 45 52 54 55 56 57 60 59 58 58 56 57 58 59 59 62 65 66 66 67 67 67 67 67 67 67 67 67 68 68 68 69 69 70 70 71 72 73 73 74 74 74 74 74 74 74 74 75 74 74 74 74 74 74 75 74 74 74 74 74 75 76 75 75 75 75 74 75 75 74 75 75 76 76 77 76 73 74 73 73 74 74 74 74 73 72 72 72
55 55 56 57 57 55 55 52 44 52 53 54 54 56 59 58 58 59 58 55 57 59 59 60 64 65 66 67 67 66 66 66 66 67 67 67 67 67 68 68 68 69 70 70 71 72 73 73 74 74 74 74 74 74 74 74 74 74 74 74 74 74 74 74 74 74 74 74 74 75 75 74 74 74 74 74 74 74 74 74 74 75 75 75 76 74 73 73 73 73 73 73 73 72 72 73 73
57 55 55 54 54 54 54 53 51 49 53 53 55 58 58 57 56 59 57 57 58 59 59 61 64 66 66 66 66 65 66 66 66 67 67 67 67 67 68 68 68 69 70 70 71 71 73 73 74 74 74 74 74 74 74 74 75 74 74 75 75 75 74 74 74 74 74 74 74 75 76 74 74 74 74 74 74 74 74 74 74 74 74 74 75 74 72 73 72 72 73 73 72 72 71 71 71
57 57 57 56 55 54 52 51 50 47 52 53 55 56 57 57 56 58 57 57 59 59 60 63 64 65 65 65 65 65 65 65 66 67 67 67 67 67 68 68 68 69 69 69 70 71 72 73 74 74 74 74 74 74 74 74 75 74 75 75 75 76 74 74 74 74 74 74 74 75 76 74 74 74 73 73 74 74 74 74 74 74 74 73 74 74 72 72 72 72 72 73 72 72 71 71 72
56 56 56 55 54 53 52 51 50 45 45 52 54 55 56 56 57 57 58 58 59 60 62 63 64 65 65 65 66 66 65 65 65 66 67 67 67 67 67 67 68 68 69 69 70 70 72 73 73 73 74 74 74 74 74 74 74 74 74 74 75 75 75 74 74 74 74 73 74 74 75 75 74 73 73 73 74 74 74 74 74 73 73 74 73 73 73 72 71 72 72 71 71 71 71 72 73
52 55 55 54 54 53 52 50 49 47 46 50 52 53 54 54 54 53 57 59 60 61 62 63 64 64 64 65 66 66 66 65 65 66 67 67 67 67 67 67 67 68 69 69 69 70 72 73 73 74 74 74 74 73 74 74 74 74 74 74 75 75 75 75 75 74 73 73 73 74 74 75 75 74 73 73 74 74 74 73 73 73 73 73 74 73 73 72 72 72 72 71 71 71 72 72 72
43 42 42 42 42 43 46 47 47 47 45 47 51 51 53 53 53 51 56 59 60 61 62 63 63 63 64 65 65 66 66 66 66 66 66 67 67 67 66 66 67 67 68 68 69 70 71 72 73 73 73 74 74 73 74 74 74 74 74 74 74 75 75 74 74 74 75 73 73 73 74 74 76 74 74 73 73 74 73 73 73 72 72 72 73 73 73 74 73 73 72 72 73 73 73 72 72
43 43 42 41 35 31 32 36 38 45 44 45 50 47 50 49 51 52 58 59 60 61 62 62 63 63 64 65 65 66 66 66 66 66 67 67 67 67 67 67 67 67 67 68 69 69 70 72 72 73 73 74 73 73 73 73 74 74 74 74 74 74 74 74 74 73 74 74 74 73 74 74 75 75 74 73 75 74 73 73 72 73 72 72 73 73 73 74 74 74 73 74 73 73 72 72 73
34 29 30 24 22 20 21 29 34 40 43 42 42 38 40 48 50 57 59 59 60 60 61 62 62 63 64 64 65 65 66 66 66 66 67 67 67 67 67 67 67 67 67 68 68 69 70 71 72 72 72 73 73 73 73 73 73 73 74 74 74 74 74 74 74 74 74 74 74 73 73 74 75 75 74 73 73 73 73 73 72 72 72 72 72 74 73 74 73 73 73 73 75 72 71 72 69
35 36 28 26 24 22 25 33 36 37 41 39 41 38 37 40 47 57 59 59 59 59 61 62 62 63 63 64 64 65 65 66 66 66 67 67 67 67 67 67 67 67 67 67 67 68 70 70 71 71 72 72 73 72 72 72 73 73 73 73 73 73 73 73 73 73 73 73 73 73 73 74 75 75 74 73 73 73 73 73 72 72 72 73 72 73 73 73 73 73 74 72 71 71 70 72 68
23 31 26 21 21 24 25 27 34 27 35 38 40 39 36 37 39 58 59 59 59 59 60 61 62 62 63 63 64 64 65 66 66 66 66 67 67 67 67 67 67 67 67 67 67 68 69 70 71 70 71 71 72 72 72 72 72 73 73 74 73 73 73 73 73 73 73 73 73 73 73 74 75 75 74 73 73 73 73 72 72 73 73 73 73 74 74 73 73 73 73 71 70 69 70 69 69
25 31 31 29 23 21 20 22 27 28 29 40 39 36 40 42 41 58 59 59 59 59 60 61 61 62 63 63 64 64 65 65 66 66 66 67 67 67 67 67 68 68 68 67 67 68 69 69 71 69 70 71 71 72 72 72 72 72 72 72 72 73 72 72 72 72 73 72 73 73 73 74 75 75 75 74 73 73 73 73 73 73 74 73 73 73 73 73 72 72 72 73 70 69 68 68 66
27 23 26 24 21 22 22 25 23 29 30 35 38 35 36 47 53 58 58 59 58 58 59 60 61 61 62 63 63 64 64 65 65 66 66 67 67 67 67 69 68 68 68 68 68 68 68 69 70 69 69 70 71 71 72 72 72 72 72 72 73 72 72 72 72 72 72 72 73 73 73 74 75 75 75 74 73 73 73 73 73 73 74 73 73 73 73 72 72 71 71 72 71 70 69 67 65
28 30 25 21 21 20 20 20 22 22 37 30 35 37 37 52 54 57 58 59 58 58 59 60 60 61 62 62 63 64 64 64 65 66 66 67 67 67 67 68 68 68 68 68 68 69 69 69 70 70 70 70 70 71 72 72 72 72 72 72 72 72 72 72 72 72 72 72 72 73 73 74 75 75 75 74 73 73 73 73 73 73 74 73 73 72 72 72 72 71 70 70 73 71 70 67 65
30 26 24 22 20 21 20 20 24 25 27 36 38 38 38 51 54 57 57 58 58 58 59 60 60 61 61 62 63 63 64 64 65 66 66 66 67 67 67 68 68 68 68 69 69 69 69 70 70 70 71 70 71 71 72 72 72 72 71 71 71 71 72 72 72 72 72 72 73 73 73 74 74 75 74 75 74 73 73 73 73 73 74 73 72 72 71 72 71 71 70 69 69 68 68 67 66
24 21 21 19 19 19 20 21 21 22 26 33 35 39 39 48 54 56 57 58 58 58 59 59 60 60 61 61 62 63 64 64 65 65 66 66 67 67 68 68 68 68 68 69 69 69 69 69 70 70 71 71 70 70 71 71 71 71 71 71 70 71 71 72 72 71 71 71 73 73 74 74 74 75 75 75 74 74 74 73 73 73 73 73 72 72 72 72 71 71 71 71 67 65 64 67 67
25 25 23 22 21 21 21 19 23 27 30 34 40 39 40 43 53 56 57 57 57 57 58 59 60 60 61 61 62 62 63 64 65 65 65 66 66 67 67 68 69 68 68 68 68 68 69 69 69 70 71 71 71 70 71 71 71 71 70 70 70 70 71 71 71 71 71 72 73 73 74 74 74 74 75 75 75 74 74 73 73 73 73 73 72 73 72 73 73 71 70 68 67 65 64 65 66
21 22 23 20 20 20 20 19 21 23 27 23 24 33 37 40 52 55 56 57 57 57 58 59 59 60 60 61 61 62 63 63 64 64 65 65 66 66 67 67 68 68 68 68 68 68 69 69 69 70 70 71 71 71 71 71 71 71 71 71 71 71 71 71 71 72 72 71 72 73 74 74 74 74 75 75 74 74 74 73 73 73 73 73 73 72 73 72 72 71 69 68 65 66 67 68 67
21 19 20 19 21 20 20 21 27 29 27 28 38 34 37 49 53 54 56 57 57 57 57 58 59 60 60 60 61 62 62 63 63 64 64 65 65 66 66 66 67 68 68 68 68 68 68 69 69 69 70 70 71 71 72 71 71 71 72 71 71 71 71 72 72 72 72 72 71 72 74 74 74 74 75 75 75 74 74 73 73 73 73 73 73 72 72 71 71 70 69 68 65 62 63 65 69
22 21 20 20 20 19 19 22 22 22 23 30 31 37 39 46 51 52 54 56 56 56 57 58 59 59 60 61 61 62 62 62 63 63 64 64 65 65 66 66 66 67 67 67 67 68 68 68 69 69 69 70 71 71 72 71 72 71 71 72 72 71 72 72 71 71 71 72 71 72 73 74 74 74 75 75 75 74 74 74 73 73 73 73 73 72 71 71 71 70 69 68 64 63 62 65 68
24 23 21 22 21 21 20 21 21 22 22 25 28 26 35 41 47 50 53 54 55 56 56 56 57 58 59 59 60 61 62 63 63 63 63 64 64 65 66 66 66 66 67 67 67 68 68 68 69 69 69 70 70 71 71 71 71 71 70 70 69 69 69 70 69 70 70 71 71 71 73 74 74 74 75 75 75 75 74 74 73 73 73 73 73 72 71 71 70 70 69 68 66 64 65 65 65
24 26 23 22 21 20 20 20 21 22 20 26 33 24 26 39 41 45 52 53 54 55 55 55 57 58 58 59 59 60 61 61 62 63 63 63 64 64 65 66 66 66 66 67 67 68 68 68 68 69 69 69 70 71 71 72 71 70 70 70 70 69 69 69 70 70 70 71 72 71 72 73 74 74 75 75 75 75 74 74 73 73 73 73 73 72 71 71 70 70 69 67 66 68 65 65 65
24 23 22 22 21 20 20 20 19 22 29 30 30 34 29 28 36 42 49 52 53 53 54 55 55 57 57 58 58 59 60 61 61 62 62 63 63 64 64 65 66 66 66 67 67 67 68 68 68 68 69 70 70 70 71 71 70 70 70 70 70 69 69 69 70 70 71 72 71 71 72 73 74 74 74 75 75 75 74 74 73 73 73 73 73 72 72 71 71 70 69 68 67 68 65 65 64
23 21 21 20 20 20 21 20 20 22 25 20 23 32 27 29 33 43 46 49 51 52 53 54 55 56 57 57 58 59 59 60 61 61 62 62 63 63 64 64 65 65 66 66 66 67 68 68 68 68 69 69 69 70 70 71 71 70 70 70 69 70 70 70 70 71 71 72 71 71 72 72 73 74 74 74 74 74 75 74 73 73 73 72 74 73 72 71 71 70 69 68 66 68 66 66 66
23 23 23 21 21 21 20 22 22 27 24 19 21 27 21 23 33 40 44 47 48 50 52 53 54 55 56 57 57 58 59 60 61 61 61 62 62 62 63 64 64 65 65 66 66 66 67 68 68 68 68 69 69 70 70 70 71 71 70 70 69 69 70 70 70 70 70 71 70 71 71 72 73 73 74 74 74 74 75 74 73 73 72 72 73 73 72 71 71 70 69 68 67 67 67 67 65
20 20 20 18 18 21 31 29 26 26 18 18 18 26 22 18 28 37 40 42 46 48 51 52 53 54 55 56 57 57 58 59 60 60 61 61 62 62 62 63 64 64 65 65 66 66 66 67 67 68 68 68 69 69 70 70 70 70 70 70 69 69 69 69 69 69 70 70 70 70 71 71 72 73 73 74 74 74 74 75 73 73 73 73 74 73 72 71 70 70 69 69 68 67 66 67 68
20 21 20 18 21 23 23 23 29 18 16 26 20 22 23 19 26 36 39 41 43 46 47 49 51 52 53 55 55 57 57 58 59 60 60 60 61 61 62 62 62 63 64 65 65 66 66 67 67 67 68 68 69 69 69 69 69 70 70 70 69 69 69 69 69 69 69 69 70 70 71 71 72 73 73 73 73 73 74 74 74 74 73 73 73 73 73 72 71 69 69 69 68 67 67 68 68
19 18 19 19 20 19 17 19 15 17 17 22 22 22 25 22 28 33 39 40 41 44 45 47 49 50 51 52 54 56 57 57 58 59 59 60 60 61 61 61 62 63 64 65 65 65 66 66 67 67 67 68 68 69 69 69 69 69 70 70 70 70 70 70 69 69 70 70 70 70 70 70 71 71 72 73 73 74 74 74 74 73 73 73 73 73 73 72 70 69 69 68 68 67 67 67 66
17 17 18 17 16 14 14 17 21 18 23 24 21 24 18 25 29 30 34 40 41 42 43 44 47 49 50 51 52 54 56 56 57 58 59 59 60 60 61 61 62 62 63 64 65 65 66 66 67 67 67 68 68 69 69 69 69 69 70 70 70 70 70 70 69 69 69 70 70 70 70 70 70 71 72 72 73 74 74 74 74 74 74 74 73 73 72 71 70 69 68 68 67 68 67 67 66
17 17 16 17 16 16 13 14 10 11 17 22 25 19 21 18 27 28 27 35 41 42 42 43 45 46 48 49 50 52 54 56 56 57 58 59 59 60 60 61 61 62 62 63 64 65 66 66 67 67 67 67 68 68 69 69 69 69 69 70 70 70 70 70 70 70 70 70 70 70 70 70 70 71 71 72 74 74 74 74 74 74 73 73 73 73 72 70 70 69 68 68 68 68 67 67 66
16 15 18 18 15 28 12 19 20 22 18 19 23 19 26 22 34 41 33 28 37 42 42 43 43 44 45 46 48 50 52 54 55 56 57 58 59 60 60 61 61 61 62 62 64 65 65 66 66 67 67 67 68 68 69 69 69 69 70 69 70 70 70 70 70 70 70 70 70 70 70 71 71 71 72 73 73 73 73 74 74 74 74 73 73 72 71 70 69 68 68 68 67 67 67 66 66
17 15 14 16 17 15 19 28 26 24 18 14 29 25 25 28 26 27 30 32 33 40 42 42 42 42 44 44 46 48 50 52 54 55 56 58 59 59 60 60 60 61 61 62 64 65 66 66 66 67 67 67 68 68 69 69 69 69 70 70 70 70 70 70 69 70 69 70 70 70 70 71 71 72 72 73 73 73 73 74 74 73 73 73 72 72 71 70 68 68 67 67 67 66 67 66 66
14 15 16 19 18 17 19 15 18 16 12 16 23 20 21 23 20 38 31 31 31 38 41 42 42 42 42 43 45 46 48 50 53 55 56 57 58 59 59 59 60 60 61 62 63 64 65 66 66 66 67 67 67 68 68 69 69 69 70 70 70 70 70 70 70 70 70 70 70 71 71 71 71 71 72 73 73 73 73 74 73 73 73 72 71 71 70 69 68 67 67 67 67 67 67 66 66
14 14 16 14 18 17 21 21 13 14 13 14 17 26 24 23 23 33 31 32 31 35 40 42 42 42 43 43 44 45 46 48 51 53 55 56 57 58 59 58 59 60 62 62 62 63 64 65 66 66 66 66 67 67 68 69 70 70 70 70 70 70 70 70 71 71 71 70 70 70 70 71 71 72 72 73 73 73 73 73 73 73 73 72 71 70 70 69 68 67 67 66 66 66 66 66 66
17 14 14 19 16 23 19 17 22 18 14 16 12 19 12 26 21 27 28 32 32 32 37 40 41 42 43 43 43 44 45 47 48 50 53 55 56 57 57 58 58 59 61 61 62 62 63 64 66 66 66 67 68 68 69 69 69 70 70 70 71 71 71 71 71 71 71 71 70 70 70 70 71 72 72 73 73 72 73 73 73 72 72 72 71 69 69 69 68 67 67 66 66 66 65 65 65
15 13 12 13 21 20 16 23 14 16 17 13 12 9 15 29 27 26 27 31 33 33 35 39 41 42 42 43 44 45 46 46 47 49 51 53 55 56 57 58 58 59 60 61 61 62 62 63 64 65 66 66 67 67 68 68 69 70 70 70 70 71 71 71 71 71 71 71 71 71 70 71 71 71 72 72 72 72 72 72 72 72 72 71 70 69 69 68 68 67 67 66 66 65 65 65 65
15 14 13 11 11 15 11 14 16 17 16 17 12 9 20 25 32 28 27 30 32 34 35 36 39 41 43 43 44 45 46 47 47 47 49 51 54 56 56 58 59 59 59 60 61 61 62 62 63 64 65 66 66 67 68 68 69 69 69 70 70 70 71 71 71 71 71 71 71 71 71 71 71 71 72 72 72 72 72 72 72 72 72 71 70 70 68 68 68 67 66 66 65 65 64 64 64